TimeEDT,TemperatureF,Dew PointF,Humidity,Sea Level PressureIn,VisibilityMPH,Wind Direction,Wind SpeedMPH,Gust SpeedMPH,PrecipitationIn,Events,Conditions,WindDirDegrees,DateUTC
12:53 AM,36.0,24.1,62,30.48,10.0,SE,5.8,-,N/A,,Clear,140,2013-04-22 04:53:00
1:53 AM,34.0,23.0,64,30.47,10.0,SSE,6.9,-,N/A,,Clear,150,2013-04-22 05:53:00
2:53 AM,35.1,24.1,64,30.44,10.0,SSE,3.5,-,N/A,,Clear,150,2013-04-22 06:53:00
3:53 AM,35.1,25.0,67,30.42,10.0,SE,6.9,-,N/A,,Clear,140,2013-04-22 07:53:00
4:53 AM,35.1,27.0,72,30.41,10.0,SSE,8.1,-,N/A,,Clear,150,2013-04-22 08:53:00
5:53 AM,34.0,27.0,75,30.41,10.0,SE,6.9,-,N/A,,Clear,140,2013-04-22 09:53:00
6:53 AM,33.1,27.0,78,30.41,10.0,Calm,Calm,-,N/A,,Clear,0,2013-04-22 10:53:00
7:53 AM,37.0,30.9,79,30.42,9.0,Calm,Calm,-,N/A,,Clear,0,2013-04-22 11:53:00
8:53 AM,43.0,33.1,68,30.42,10.0,SSE,5.8,-,N/A,,Clear,150,2013-04-22 12:53:00
9:53 AM,48.9,30.9,50,30.40,10.0,SSE,10.4,-,N/A,,Clear,160,2013-04-22 13:53:00
10:53 AM,53.1,30.0,41,30.39,10.0,South,5.8,-,N/A,,Clear,170,2013-04-22 14:53:00
11:53 AM,55.9,28.0,34,30.38,10.0,Variable,5.8,-,N/A,,Clear,0,2013-04-22 15:53:00
12:53 PM,57.9,26.1,30,30.35,10.0,Variable,4.6,-,N/A,,Clear,0,2013-04-22 16:53:00
1:53 PM,60.1,28.0,30,30.32,10.0,SSE,10.4,-,N/A,,Clear,150,2013-04-22 17:53:00
2:53 PM,62.1,27.0,26,30.29,10.0,SE,11.5,-,N/A,,Clear,140,2013-04-22 18:53:00
3:53 PM,62.1,25.0,24,30.27,10.0,Variable,3.5,-,N/A,,Clear,0,2013-04-22 19:53:00
4:53 PM,62.1,25.0,24,30.25,10.0,Variable,4.6,-,N/A,,Clear,0,2013-04-22 20:53:00
5:53 PM,62.1,28.9,29,30.23,10.0,SSE,11.5,-,N/A,,Clear,150,2013-04-22 21:53:00
6:53 PM,60.1,30.9,33,30.21,10.0,SE,15.0,-,N/A,,Clear,130,2013-04-22 22:53:00
7:53 PM,55.9,30.9,39,30.21,10.0,SE,8.1,-,N/A,,Clear,130,2013-04-22 23:53:00
8:53 PM,52.0,28.9,41,30.21,10.0,ESE,9.2,-,N/A,,Clear,120,2013-04-23 00:53:00
9:53 PM,48.0,28.9,48,30.21,10.0,ESE,8.1,-,N/A,,Clear,120,2013-04-23 01:53:00
10:53 PM,48.9,32.0,52,30.22,10.0,SE,8.1,-,N/A,,Clear,140,2013-04-23 02:53:00
11:53 PM,48.9,33.1,54,30.20,10.0,SE,9.2,-,N/A,,Clear,130,2013-04-23 03:53:00